Franz Valley Road CA US current weather conditions

sailwx.info

Wind from 014 at 0 knots gusting 2

Air temperature 21.4° C
Dewpoint 9.1° C

Last reported at 2019-Aug-26 06:00 UTC.
Time now 2019-Aug-26 07:04 UTC

Location: N 38°34' W 122°41'.
View on Google Maps.

See reports from other nearby stations

  
Tides and Currents Weather Stations Pressure Air Temp Water Temp Dewpoint Dewpoint Depression Visibility Wind Speed Wind Dir Waves Ship Positions
date/time (UTC)wind fromknots sea level pressurealtimeterstation pressurevisibilityair tempwater tempwave heightnotes
2019-Aug-26 06:00 014 0 gusting 2 21.4
2019-Aug-26 05:50 248 0 gusting 0 21.6
2019-Aug-26 05:40 250 0 gusting 0 21.9
2019-Aug-26 05:30 214 0 gusting 1 22.4
2019-Aug-26 05:20 221 0 gusting 1 22.4
2019-Aug-26 05:10 201 0 gusting 1 22.6
2019-Aug-26 05:00 185 0 gusting 1 23.0
2019-Aug-26 04:50 268 0 gusting 1 22.9
2019-Aug-26 04:40 22.6
2019-Aug-26 04:30 232 0 gusting 1 23.0
2019-Aug-26 04:20 222 0 gusting 1 23.5
2019-Aug-26 04:10 196 0 gusting 1 24.1
2019-Aug-26 04:00 173 0 gusting 1 24.2
2019-Aug-26 03:50 200 0 gusting 0 24.2
2019-Aug-26 03:40 197 0 gusting 1 24.3
2019-Aug-26 03:30 159 0 gusting 1 24.6
2019-Aug-26 03:20 155 0 gusting 2 24.9
2019-Aug-26 03:10 155 0 gusting 2 25.1
2019-Aug-26 03:00 164 0 gusting 2 25.5
2019-Aug-26 02:50 179 2 gusting 3 26.0
2019-Aug-26 02:40 189 3 gusting 4 26.3
2019-Aug-26 02:30 193 4 gusting 5 26.8
2019-Aug-26 02:20 199 4 gusting 6 27.3
2019-Aug-26 02:10 198 4 gusting 6 27.8
2019-Aug-26 02:00 205 4 gusting 7 28.1
2019-Aug-26 01:50 217 4 gusting 6 28.4
2019-Aug-26 01:40 216 3 gusting 6 28.5
2019-Aug-26 01:30 208 5 gusting 7 28.7
2019-Aug-26 01:20 215 5 gusting 8 28.9
2019-Aug-26 01:10 217 4 gusting 7 29.2
2019-Aug-26 01:00 212 6 gusting 10 29.2
2019-Aug-26 00:50 219 5 gusting 9 29.5
2019-Aug-26 00:40 214 6 gusting 10 29.5
2019-Aug-26 00:30 213 6 gusting 10 29.5
2019-Aug-26 00:20 213 6 gusting 10 29.6
2019-Aug-26 00:10 215 7 gusting 11 29.8
2019-Aug-26 00:00 212 6 gusting 12 30.2
2019-Aug-25 23:50 212 6 gusting 10 30.0
2019-Aug-25 23:40 190 8 gusting 12 29.8
2019-Aug-25 23:30 187 7 gusting 13 30.3
2019-Aug-25 23:20 210 6 gusting 11 30.6
2019-Aug-25 23:10 201 7 gusting 11 30.5
2019-Aug-25 23:00 215 6 gusting 13 30.6
2019-Aug-25 22:50 217 6 gusting 11 30.4
2019-Aug-25 22:40 218 7 gusting 11 30.6
2019-Aug-25 22:30 213 6 gusting 10 30.4
2019-Aug-25 22:20 216 6 gusting 11 30.7
2019-Aug-25 22:10 212 7 gusting 11 30.7
2019-Aug-25 22:00 210 6 gusting 10 30.7
2019-Aug-25 21:50 202 5 gusting 9 30.7
2019-Aug-25 21:40 205 5 gusting 9 30.8
2019-Aug-25 21:30 187 5 gusting 10 30.4
2019-Aug-25 21:20 187 5 gusting 10 30.6
2019-Aug-25 21:10 218 4 gusting 9 30.6
2019-Aug-25 21:00 232 3 gusting 9 30.5
2019-Aug-25 20:50 214 4 gusting 8 30.6
2019-Aug-25 20:40 193 5 gusting 11 30.3
2019-Aug-25 20:30 238 3 gusting 7 29.8
2019-Aug-25 20:20 243 3 gusting 7 29.7
2019-Aug-25 20:10 231 3 gusting 6 29.6
2019-Aug-25 20:00 221 3 gusting 8 28.8
2019-Aug-25 19:50 208 3 gusting 6 28.5
2019-Aug-25 19:40 213 3 gusting 7 28.3
2019-Aug-25 19:30 196 4 gusting 8 27.9
2019-Aug-25 19:20 208 4 gusting 7 28.0
2019-Aug-25 19:10 230 3 gusting 7 27.6
2019-Aug-25 19:00 220 3 gusting 6 27.4
2019-Aug-25 18:50 228 3 gusting 7 27.1
2019-Aug-25 18:40 226 3 gusting 7 26.8
2019-Aug-25 18:30 217 4 gusting 7 26.5
2019-Aug-25 18:20 228 3 gusting 7 26.6
2019-Aug-25 18:10 249 2 gusting 6 26.2
2019-Aug-25 18:00 227 2 gusting 5 25.9
2019-Aug-25 17:50 202 3 gusting 7 25.3
2019-Aug-25 17:40 211 3 gusting 6 24.9
2019-Aug-25 17:30 212 2 gusting 6 24.4
2019-Aug-25 17:20 199 2 gusting 4 23.8
2019-Aug-25 17:10 186 2 gusting 4 23.2
2019-Aug-25 17:00 180 2 gusting 4 22.9
2019-Aug-25 16:50 181 2 gusting 3 22.1
2019-Aug-25 16:40 198 2 gusting 4 21.6
2019-Aug-25 16:30 209 2 gusting 3 21.0
2019-Aug-25 16:20 202 2 gusting 3 20.5
2019-Aug-25 16:10 208 1 gusting 2 20.2
2019-Aug-25 16:00 201 1 gusting 2 19.6
2019-Aug-25 15:50 189 1 gusting 2 19.3
2019-Aug-25 15:40 193 1 gusting 2 19.2
2019-Aug-25 15:30 196 1 gusting 2 19.0
2019-Aug-25 15:20 195 0 gusting 2 18.7
2019-Aug-25 15:10 218 1 gusting 2 18.2
2019-Aug-25 15:00 192 1 gusting 1 17.7
2019-Aug-25 14:50 190 1 gusting 2 17.2
2019-Aug-25 14:40 181 0 gusting 1 16.6
2019-Aug-25 14:30 182 0 gusting 1 16.2
2019-Aug-25 14:20 354 0 gusting 0 15.2
2019-Aug-25 14:10 357 0 gusting 0 14.9
2019-Aug-25 14:00 360 0 gusting 1 15.0
2019-Aug-25 13:50 006 0 gusting 1 14.7
2019-Aug-25 13:40 003 1 gusting 1 14.5
2019-Aug-25 13:30 002 1 gusting 1 14.6
2019-Aug-25 13:20 004 1 gusting 1 14.7
2019-Aug-25 13:10 002 1 gusting 1 14.8
2019-Aug-25 13:00 002 0 gusting 1 15.0
2019-Aug-25 12:50 002 0 gusting 1 15.0
2019-Aug-25 12:40 011 1 gusting 1 15.4
2019-Aug-25 12:30 15.6
2019-Aug-25 12:20 15.5
2019-Aug-25 12:10 037 0 gusting 0 15.5
2019-Aug-25 12:00 013 0 gusting 1 15.9
2019-Aug-25 11:50 15.7
2019-Aug-25 11:40 15.6
2019-Aug-25 11:30 189 0 gusting 1 15.6
2019-Aug-25 11:20 192 1 gusting 2 15.9
2019-Aug-25 11:10 181 0 gusting 1 16.3
2019-Aug-25 11:00 360 0 gusting 1 15.8
2019-Aug-25 10:50 15.4
2019-Aug-25 10:40 359 2 gusting 2 15.2
2019-Aug-25 10:30 359 2 gusting 2 15.2
2019-Aug-25 10:20 003 2 gusting 2 15.8
2019-Aug-25 10:10 011 1 gusting 1 16.2
2019-Aug-25 10:00 006 1 gusting 1 16.0
2019-Aug-25 09:50 001 0 gusting 1 15.7
2019-Aug-25 09:40 004 1 gusting 2 15.6
2019-Aug-25 09:30 001 1 gusting 2 15.5
2019-Aug-25 09:20 356 1 gusting 1 15.7
2019-Aug-25 09:10 004 1 gusting 2 16.0
2019-Aug-25 09:00 018 1 gusting 2 16.5
2019-Aug-25 08:50 014 1 gusting 2 16.2
2019-Aug-25 08:40 171 0 gusting 1 16.5
2019-Aug-25 08:30 165 0 gusting 1 16.5
2019-Aug-25 08:20 16.5
2019-Aug-25 08:10 16.8
2019-Aug-25 08:00 16.9
2019-Aug-25 07:50 16.9
2019-Aug-25 07:40 184 0 gusting 1 16.9
2019-Aug-25 07:30 174 0 gusting 1 17.2
2019-Aug-25 07:20 175 0 gusting 1 17.3
2019-Aug-25 07:10 176 0 gusting 1 17.6
2019-Aug-25 07:00 17.8
2019-Aug-25 06:50 182 0 gusting 1 18.1
2019-Aug-25 06:40 155 0 gusting 1 17.9
2019-Aug-25 06:30 194 0 gusting 0 18.0
2019-Aug-25 06:20 211 0 gusting 0 18.0
2019-Aug-25 06:10 215 0 gusting 0 18.2
2019-Aug-25 06:00 226 1 gusting 2 18.3
2019-Aug-25 05:50 224 1 gusting 2 18.3
2019-Aug-25 05:40 227 1 gusting 2 18.4
2019-Aug-25 05:30 227 1 gusting 2 18.5
2019-Aug-25 05:20 184 1 gusting 2 18.8
2019-Aug-25 05:10 172 1 gusting 3 18.9
2019-Aug-25 05:00 172 2 gusting 4 19.2
2019-Aug-25 04:50 184 2 gusting 3 19.2
2019-Aug-25 04:40 205 2 gusting 3 19.3
2019-Aug-25 04:30 178 1 gusting 2 19.5
2019-Aug-25 04:20 169 1 gusting 3 19.5
2019-Aug-25 04:10 170 1 gusting 4 19.5
2019-Aug-25 04:00 167 1 gusting 4 19.6
2019-Aug-25 03:50 166 3 gusting 6 19.8
2019-Aug-25 03:40 166 4 gusting 7 20.0
2019-Aug-25 03:30 166 3 gusting 5 20.2
2019-Aug-25 03:20 170 3 gusting 6 20.6
2019-Aug-25 03:10 172 5 gusting 8 20.9
2019-Aug-25 03:00 174 4 gusting 7 21.4
2019-Aug-25 02:50 183 4 gusting 6 22.0
2019-Aug-25 02:40 184 5 gusting 7 22.4
2019-Aug-25 02:30 190 4 gusting 6 22.9
2019-Aug-25 02:20 199 4 gusting 6 23.3
2019-Aug-25 02:10 206 4 gusting 7 23.7
2019-Aug-25 02:00 200 5 gusting 7 24.0
2019-Aug-25 01:50 195 5 gusting 8 24.4
2019-Aug-25 01:40 192 6 gusting 9 24.6
2019-Aug-25 01:30 204 6 gusting 9 25.1
2019-Aug-25 01:20 204 6 gusting 9 25.4
2019-Aug-25 01:10 213 5 gusting 10 25.7
2019-Aug-25 01:00 213 6 gusting 9 25.9
2019-Aug-25 00:50 216 6 gusting 10 26.3
2019-Aug-25 00:40 218 6 gusting 9 26.6
2019-Aug-25 00:30 211 6 gusting 11 26.6
2019-Aug-25 00:20 214 6 gusting 9 26.9
2019-Aug-25 00:10 219 5 gusting 9 27.1
2019-Aug-25 00:00 213 6 gusting 10 27.4
2019-Aug-24 23:50 210 7 gusting 10 27.2
2019-Aug-24 23:40 213 6 gusting 11 27.4
2019-Aug-24 23:30 208 6 gusting 11 27.7
2019-Aug-24 23:20 217 6 gusting 11 27.5
2019-Aug-24 23:10 212 6 gusting 10 27.6
2019-Aug-24 23:00 208 7 gusting 12 27.6
2019-Aug-24 22:50 212 6 gusting 12 27.8
2019-Aug-24 22:40 218 6 gusting 11 27.9
2019-Aug-24 22:30 207 6 gusting 11 27.8
2019-Aug-24 22:20 217 5 gusting 10 27.9
2019-Aug-24 22:10 216 6 gusting 11 27.8
2019-Aug-24 22:00 209 6 gusting 10 27.5
2019-Aug-24 21:50 208 7 gusting 11 27.8
2019-Aug-24 21:40 215 6 gusting 11 27.8
2019-Aug-24 21:30 202 6 gusting 11 27.6
2019-Aug-24 21:20 188 7 gusting 12 27.4
2019-Aug-24 21:10 211 6 gusting 12 27.3
2019-Aug-24 21:00 211 7 gusting 10 27.2
2019-Aug-24 20:50 216 6 gusting 11 27.4
2019-Aug-24 20:40 194 6 gusting 11 27.1
2019-Aug-24 20:30 205 5 gusting 11 26.9
2019-Aug-24 20:20 200 6 gusting 11 26.6
2019-Aug-24 20:10 222 5 gusting 10 26.4
2019-Aug-24 20:00 216 5 gusting 9 26.3
2019-Aug-24 19:50 216 4 gusting 8 25.9
2019-Aug-24 19:40 253 3 gusting 7 25.1
2019-Aug-24 19:30 239 3 gusting 7 24.8
2019-Aug-24 19:20 234 3 gusting 8 24.2
2019-Aug-24 19:10 240 4 gusting 8 23.8
2019-Aug-24 19:00 230 3 gusting 7 23.7
2019-Aug-24 18:50 209 4 gusting 7 23.3
2019-Aug-24 18:40 230 3 gusting 8 23.1
2019-Aug-24 18:30 210 4 gusting 7 22.8
2019-Aug-24 18:20 231 3 gusting 8 22.4
2019-Aug-24 18:10 229 2 gusting 6 21.7
2019-Aug-24 18:00 239 2 gusting 6 21.2
2019-Aug-24 17:50 240 3 gusting 6 20.8
2019-Aug-24 17:40 227 3 gusting 6 20.2
2019-Aug-24 17:30 230 3 gusting 6 19.6
2019-Aug-24 17:20 213 3 gusting 6 19.1
2019-Aug-24 17:10 211 3 gusting 5 18.7
2019-Aug-24 17:00 216 3 gusting 5 17.8
2019-Aug-24 16:50 216 2 gusting 4 16.7
2019-Aug-24 16:40 215 2 gusting 4 15.9
2019-Aug-24 16:30 187 1 gusting 3 15.1
2019-Aug-24 16:20 231 1 gusting 4 14.4
2019-Aug-24 16:10 209 1 gusting 3 13.9
2019-Aug-24 16:00 219 1 gusting 2 13.6
2019-Aug-24 15:50 230 0 gusting 2 13.1
2019-Aug-24 15:40 146 0 gusting 2 12.9
2019-Aug-24 15:30 204 1 gusting 3 12.7
2019-Aug-24 15:20 221 1 gusting 3 12.9
2019-Aug-24 15:10 204 2 gusting 4 12.7
2019-Aug-24 15:00 229 1 gusting 2 12.7
2019-Aug-24 14:50 212 1 gusting 3 12.8
2019-Aug-24 14:40 179 1 gusting 3 12.6
2019-Aug-24 14:30 190 2 gusting 4 12.6
2019-Aug-24 14:20 215 2 gusting 4 12.7
2019-Aug-24 14:10 206 2 gusting 5 12.8
2019-Aug-24 14:00 217 1 gusting 3 12.8
2019-Aug-24 13:50 214 1 gusting 2 12.7
2019-Aug-24 13:40 212 2 gusting 3 12.7
2019-Aug-24 13:30 203 1 gusting 2 12.7
2019-Aug-24 13:20 155 1 gusting 2 12.6
2019-Aug-24 13:10 183 1 gusting 2 12.7
2019-Aug-24 13:00 235 0 gusting 2 12.7
2019-Aug-24 12:50 230 1 gusting 3 12.7
2019-Aug-24 12:40 228 2 gusting 4 12.7
2019-Aug-24 12:30 194 1 gusting 3 12.7
2019-Aug-24 12:20 183 2 gusting 4 12.7
2019-Aug-24 12:10 202 2 gusting 3 12.7
2019-Aug-24 12:00 227 1 gusting 3 12.6
2019-Aug-24 11:50 199 2 gusting 4 12.6
2019-Aug-24 11:40 192 2 gusting 3 12.7
2019-Aug-24 11:30 175 1 gusting 3 12.7
2019-Aug-24 11:20 175 2 gusting 3 12.6
2019-Aug-24 11:10 178 3 gusting 5 12.7
2019-Aug-24 11:00 204 3 gusting 5 12.7
2019-Aug-24 10:50 198 3 gusting 4 12.7
2019-Aug-24 10:40 205 2 gusting 4 12.7
2019-Aug-24 10:30 206 1 gusting 3 12.7
2019-Aug-24 10:20 214 1 gusting 3 12.7
2019-Aug-24 10:10 196 2 gusting 3 12.7
2019-Aug-24 10:00 195 2 gusting 4 12.8
2019-Aug-24 09:50 222 1 gusting 3 12.8
2019-Aug-24 09:40 194 2 gusting 3 12.8
2019-Aug-24 09:30 203 1 gusting 2 12.7
2019-Aug-24 09:20 212 0 gusting 1 12.7
2019-Aug-24 09:10 229 0 gusting 2 12.7
2019-Aug-24 09:00 207 0 gusting 2 12.8
2019-Aug-24 08:50 189 1 gusting 1 12.9
2019-Aug-24 08:40 182 1 gusting 1 13.1
2019-Aug-24 08:30 160 0 gusting 1 13.3
2019-Aug-24 08:20 177 0 gusting 1 13.4
2019-Aug-24 08:10 181 0 gusting 1 13.7
2019-Aug-24 08:00 208 0 gusting 1 13.9
2019-Aug-24 07:50 173 1 gusting 2 14.0
2019-Aug-24 07:40 188 0 gusting 2 14.2
2019-Aug-24 07:30 197 0 gusting 1 14.3
2019-Aug-24 07:20 193 0 gusting 2 14.4
2019-Aug-24 07:10 171 1 gusting 2 14.3
2019-Aug-24 07:00 204 0 gusting 1 14.3